User: anonymous   Login
Location: Zagreb
(45.8000°N, 16.0000°E)
Time: 04:22:06
(UTC+01:00)
Language:

Tiros 1 - Orbit

View from above orbital plane
View from above orbital plane
View from above satellite
View from above satellite

Ground track
Ground track

The orbit data is extracted from the following two-line orbital elements,

1    29U 60002B   20024.70541884 -.00000131  00000-0  11558-4 0  9994
2    29  48.3793 271.7217 0024377 332.4359  27.5259 14.74338218197307
Epoch (UTC): 24 January 2020 16:55:48
Eccentricity: 0.0024377
inclination: 48.3793°
perigee height: 630 km
apogee height: 664 km
right ascension of ascending node: 271.7217°
argument of perigee: 332.4359°
revolutions per day: 14.74338218
mean anomaly at epoch: 27.5259°
orbit number at epoch: 19730

The dashed part of the orbit path shows where the satellite is in the earth's shadow,  

DLR